Terminal Aerodrome Forecast
Issued by NWS Miami, FL

Home | Current Version | Previous Version | Text Only | Print | Product List | Glossary On
Versions: 1 2 3 4 5 6 7 8 9 10 11 12 13 14 15 16 17 18 19 20 21 22 23 24 25 26 27 28 29 30 31 32 33 34 35 36 37 38 39 40 41 42 43 44 45 46 47 48
151
FTUS42 KMFL 052219 AAA
TAFAPF
TAF AMD
KAPF 052219Z 0522/0618 05012KT P6SM SKC
     FM060400 02010KT P6SM BKN050
     FM061300 03008KT P6SM SCT020 OVC050=

USA.gov is the U.S. government's official web portal to all federal, state and local government web resources and services.